STARLINK-11250 [DTC]

Last updated on Tue Oct 01 2024 00:02:04 GMT+0000 (Coordinated Universal Time)

1 60910U 24154H 24274.07314849 .00002161 00000+0 17199-4 0 9997 2 60910 53.1605 203.5806 0001300 66.4670 293.6488 15.76728164 5940
UTC large
Height (km)
Speed (km/s)
/
Latitude / Longitude
Inclination (degrees)
Orbital Period (minutes)
Azimuth
Elevation
Range (km)
Doppler Factor

Next 0 passes for location: London (51.5072 / 0.1276)

Sorry there are no passes over London.